Tracking 31027 objects as of 19-Jul-2025
HD Live streaming from Space Station
objects crossing your sky now

SL-12 R/B(2)

Track SL-12 R/B(2) now!


NORAD ID: 27620
Int'l Code: 2002-060D
Perigee: 19,100.1 km
Apogee: 19,118.8 km
Inclination: 65.6 °
Period: 674.6 minutes
Semi major axis: 25480 km
RCS: 1.5848 m2 (large)
Launch date: December 25, 2002
Source: Commonwealth of Independent States (former USSR) (CIS)
Launch site: TYURATAM MISSILE AND SPACE COMPLEX (TTMTR)

Note: This is a ROCKET BODY
Your satellite tracking list
SL-14 DEB
Track 1 satellite(s)




NASA's NSSDC Master Catalog

Two Line Element Set (TLE):
1 27620U 02060D   25198.75850051 -.00000060  00000-0  00000-0 0  9998
2 27620  65.5920 325.9559 0003664 223.3160 153.8022  2.13448032175887
Source of the keplerian elements: AFSPC